Year,Month,Day,Hour,Minute,Value (Times are PST for temperature in C)
2014,08,04,00,00,21.40
2014,08,04,00,01,21.30
2014,08,04,00,02,21.20
2014,08,04,00,03,21.20
2014,08,04,00,04,21.10
2014,08,04,00,05,21.10
2014,08,04,00,06,21.00
2014,08,04,00,07,20.90
2014,08,04,00,08,20.90
2014,08,04,00,09,20.80
2014,08,04,00,10,20.80
2014,08,04,00,11,20.70
2014,08,04,00,12,20.70
2014,08,04,00,13,20.70
2014,08,04,00,14,20.60
2014,08,04,00,15,20.50
2014,08,04,00,16,20.50
2014,08,04,00,17,20.40
2014,08,04,00,18,20.40
2014,08,04,00,19,20.40
2014,08,04,00,20,20.30
2014,08,04,00,21,20.30
2014,08,04,00,22,20.20
2014,08,04,00,23,20.20
2014,08,04,00,24,20.10
2014,08,04,00,25,20.10
2014,08,04,00,26,20.00
2014,08,04,00,27,19.90
2014,08,04,00,28,19.90
2014,08,04,00,29,19.80
2014,08,04,00,30,19.80
2014,08,04,00,31,19.70
2014,08,04,00,32,19.70
2014,08,04,00,33,19.70
2014,08,04,00,34,19.60
2014,08,04,00,35,19.60
2014,08,04,00,36,19.60
2014,08,04,00,37,19.60
2014,08,04,00,38,19.60
2014,08,04,00,39,19.50
2014,08,04,00,40,19.50
2014,08,04,00,41,19.50
2014,08,04,00,42,19.40
2014,08,04,00,43,19.40
2014,08,04,00,44,19.40
2014,08,04,00,45,19.40
2014,08,04,00,46,19.30
2014,08,04,00,47,19.30
2014,08,04,00,48,19.30
2014,08,04,00,49,19.30
2014,08,04,00,50,19.20
2014,08,04,00,51,19.20
2014,08,04,00,52,19.20
2014,08,04,00,53,19.20
2014,08,04,00,54,19.10
2014,08,04,00,55,19.10
2014,08,04,00,56,19.10
2014,08,04,00,57,19.10
2014,08,04,00,58,19.10
2014,08,04,00,59,19.10
2014,08,04,01,00,19.00
2014,08,04,01,01,19.00
2014,08,04,01,02,19.00
2014,08,04,01,03,18.90
2014,08,04,01,04,18.90
2014,08,04,01,05,18.90
2014,08,04,01,06,18.90
2014,08,04,01,07,18.90
2014,08,04,01,08,18.80
2014,08,04,01,09,18.80
2014,08,04,01,10,18.80
2014,08,04,01,11,18.80
2014,08,04,01,12,18.80
2014,08,04,01,13,18.80
2014,08,04,01,14,18.70
2014,08,04,01,15,18.70
2014,08,04,01,16,18.70
2014,08,04,01,17,18.70
2014,08,04,01,18,18.70
2014,08,04,01,19,18.80
2014,08,04,01,20,18.80
2014,08,04,01,21,18.80
2014,08,04,01,22,18.80
2014,08,04,01,23,18.70
2014,08,04,01,24,18.70
2014,08,04,01,25,18.70
2014,08,04,01,26,18.70
2014,08,04,01,27,18.70
2014,08,04,01,28,18.70
2014,08,04,01,29,18.70
2014,08,04,01,30,18.70
2014,08,04,01,31,18.80
2014,08,04,01,32,18.80
2014,08,04,01,33,18.80
2014,08,04,01,34,18.80
2014,08,04,01,35,18.80
2014,08,04,01,36,18.80
2014,08,04,01,37,18.80
2014,08,04,01,38,18.80
2014,08,04,01,39,18.80
2014,08,04,01,40,18.80
2014,08,04,01,41,18.80
2014,08,04,01,42,18.80
2014,08,04,01,43,18.80
2014,08,04,01,44,18.80
2014,08,04,01,45,18.80
2014,08,04,01,46,18.80
2014,08,04,01,47,18.80
2014,08,04,01,48,18.80
2014,08,04,01,49,18.80
2014,08,04,01,50,18.80
2014,08,04,01,51,18.80
2014,08,04,01,52,18.80
2014,08,04,01,53,18.80
2014,08,04,01,54,18.80
2014,08,04,01,55,18.80
2014,08,04,01,56,18.70
2014,08,04,01,57,18.70
2014,08,04,01,58,18.70
2014,08,04,01,59,18.60
2014,08,04,02,00,18.60
2014,08,04,02,01,18.50
2014,08,04,02,02,18.50
2014,08,04,02,03,18.50
2014,08,04,02,04,18.40
2014,08,04,02,05,18.40
2014,08,04,02,06,18.40
2014,08,04,02,07,18.40
2014,08,04,02,08,18.30
2014,08,04,02,09,18.30
2014,08,04,02,10,18.30
2014,08,04,02,11,18.30
2014,08,04,02,12,18.30
2014,08,04,02,13,18.30
2014,08,04,02,14,18.30
2014,08,04,02,15,18.20
2014,08,04,02,16,18.20
2014,08,04,02,17,18.20
2014,08,04,02,18,18.20
2014,08,04,02,19,18.10
2014,08,04,02,20,18.10
2014,08,04,02,21,18.00
2014,08,04,02,22,18.00
2014,08,04,02,23,18.00
2014,08,04,02,24,17.90
2014,08,04,02,25,17.90
2014,08,04,02,26,17.90
2014,08,04,02,27,17.90
2014,08,04,02,28,17.90
2014,08,04,02,29,17.90
2014,08,04,02,30,17.90
2014,08,04,02,31,17.90
2014,08,04,02,32,17.80
2014,08,04,02,33,17.80
2014,08,04,02,34,17.80
2014,08,04,02,35,17.80
2014,08,04,02,36,17.80
2014,08,04,02,37,17.80
2014,08,04,02,38,17.80
2014,08,04,02,39,17.80
2014,08,04,02,40,17.80
2014,08,04,02,41,17.80
2014,08,04,02,42,17.70
2014,08,04,02,43,17.70
2014,08,04,02,44,17.70
2014,08,04,02,45,17.70
2014,08,04,02,46,17.70
2014,08,04,02,47,17.60
2014,08,04,02,48,17.60
2014,08,04,02,49,17.60
2014,08,04,02,50,17.60
2014,08,04,02,51,17.50
2014,08,04,02,52,17.50
2014,08,04,02,53,17.50
2014,08,04,02,54,17.50
2014,08,04,02,55,17.50
2014,08,04,02,56,17.40
2014,08,04,02,57,17.40
2014,08,04,02,58,17.40
2014,08,04,02,59,17.40
2014,08,04,03,00,17.40
2014,08,04,03,01,17.40
2014,08,04,03,02,17.40
2014,08,04,03,03,17.40
2014,08,04,03,04,17.50
2014,08,04,03,05,17.50
2014,08,04,03,06,17.50
2014,08,04,03,07,17.50
2014,08,04,03,08,17.50
2014,08,04,03,09,17.60
2014,08,04,03,10,17.60
2014,08,04,03,11,17.60
2014,08,04,03,12,17.60
2014,08,04,03,13,17.60
2014,08,04,03,14,17.60
2014,08,04,03,15,17.60
2014,08,04,03,16,17.50
2014,08,04,03,17,17.50
2014,08,04,03,18,17.50
2014,08,04,03,19,17.50
2014,08,04,03,20,17.50
2014,08,04,03,21,17.40
2014,08,04,03,22,17.40
2014,08,04,03,23,17.40
2014,08,04,03,24,17.30
2014,08,04,03,25,17.30
2014,08,04,03,26,17.30
2014,08,04,03,27,17.30
2014,08,04,03,28,17.30
2014,08,04,03,29,17.30
2014,08,04,03,30,17.30
2014,08,04,03,31,17.30
2014,08,04,03,32,17.30
2014,08,04,03,33,17.30
2014,08,04,03,34,17.30
2014,08,04,03,35,17.40
2014,08,04,03,36,17.40
2014,08,04,03,37,17.40
2014,08,04,03,38,17.40
2014,08,04,03,39,17.40
2014,08,04,03,40,17.40
2014,08,04,03,41,17.40
2014,08,04,03,42,17.40
2014,08,04,03,43,17.40
2014,08,04,03,44,17.40
2014,08,04,03,45,17.40
2014,08,04,03,46,17.40
2014,08,04,03,47,17.40
2014,08,04,03,48,17.30
2014,08,04,03,49,17.30
2014,08,04,03,50,17.30
2014,08,04,03,51,17.20
2014,08,04,03,52,17.20
2014,08,04,03,53,17.20
2014,08,04,03,54,17.10
2014,08,04,03,55,17.10
2014,08,04,03,56,17.00
2014,08,04,03,57,17.00
2014,08,04,03,58,17.00
2014,08,04,03,59,16.90
2014,08,04,04,00,16.90
2014,08,04,04,01,16.80
2014,08,04,04,02,16.80
2014,08,04,04,03,16.80
2014,08,04,04,04,16.70
2014,08,04,04,05,16.60
2014,08,04,04,06,16.50
2014,08,04,04,07,16.40
2014,08,04,04,08,16.30
2014,08,04,04,09,16.20
2014,08,04,04,10,16.10
2014,08,04,04,11,16.00
2014,08,04,04,12,15.90
2014,08,04,04,13,15.80
2014,08,04,04,14,15.80
2014,08,04,04,15,15.70
2014,08,04,04,16,15.60
2014,08,04,04,17,15.50
2014,08,04,04,18,15.50
2014,08,04,04,19,15.40
2014,08,04,04,20,15.30
2014,08,04,04,21,15.30
2014,08,04,04,22,15.30
2014,08,04,04,23,15.20
2014,08,04,04,24,15.20
2014,08,04,04,25,15.20
2014,08,04,04,26,15.20
2014,08,04,04,27,15.20
2014,08,04,04,28,15.10
2014,08,04,04,29,15.10
2014,08,04,04,30,15.10
2014,08,04,04,31,15.10
2014,08,04,04,32,15.10
2014,08,04,04,33,15.10
2014,08,04,04,34,15.10
2014,08,04,04,35,15.00
2014,08,04,04,36,15.00
2014,08,04,04,37,15.00
2014,08,04,04,38,15.00
2014,08,04,04,39,14.90
2014,08,04,04,40,14.90
2014,08,04,04,41,14.90
2014,08,04,04,42,14.90
2014,08,04,04,43,14.90
2014,08,04,04,44,14.90
2014,08,04,04,45,14.90
2014,08,04,04,46,14.90
2014,08,04,04,47,14.90
2014,08,04,04,48,14.90
2014,08,04,04,49,14.80
2014,08,04,04,50,14.80
2014,08,04,04,51,14.80
2014,08,04,04,52,14.80
2014,08,04,04,53,14.80
2014,08,04,04,54,14.70
2014,08,04,04,55,14.70
2014,08,04,04,56,14.70
2014,08,04,04,57,14.70
2014,08,04,04,58,14.70
2014,08,04,04,59,14.70
2014,08,04,05,00,14.70
2014,08,04,05,01,14.70
2014,08,04,05,02,14.70
2014,08,04,05,03,14.80
2014,08,04,05,04,14.80
2014,08,04,05,05,14.80
2014,08,04,05,06,14.80
2014,08,04,05,07,14.80
2014,08,04,05,08,14.80
2014,08,04,05,09,14.80
2014,08,04,05,10,14.80
2014,08,04,05,11,14.80
2014,08,04,05,12,14.80
2014,08,04,05,13,14.80
2014,08,04,05,14,14.80
2014,08,04,05,15,14.80
2014,08,04,05,16,14.70
2014,08,04,05,17,14.70
2014,08,04,05,18,14.70
2014,08,04,05,19,14.70
2014,08,04,05,20,14.70
2014,08,04,05,21,14.70
2014,08,04,05,22,14.70
2014,08,04,05,23,14.60
2014,08,04,05,24,14.60
2014,08,04,05,25,14.60
2014,08,04,05,26,14.60
2014,08,04,05,27,14.60
2014,08,04,05,28,14.60
2014,08,04,05,29,14.60
2014,08,04,05,30,14.60
2014,08,04,05,31,14.50
2014,08,04,05,32,14.50
2014,08,04,05,33,14.50
2014,08,04,05,34,14.50
2014,08,04,05,35,14.40
2014,08,04,05,36,14.40
2014,08,04,05,37,14.40
2014,08,04,05,38,14.40
2014,08,04,05,39,14.40
2014,08,04,05,40,14.40
2014,08,04,05,41,14.40
2014,08,04,05,42,14.40
2014,08,04,05,43,14.40
2014,08,04,05,44,14.40
2014,08,04,05,45,14.40
2014,08,04,05,46,14.40
2014,08,04,05,47,14.40
2014,08,04,05,48,14.40
2014,08,04,05,49,14.40
2014,08,04,05,50,14.40
2014,08,04,05,51,14.50
2014,08,04,05,52,14.50
2014,08,04,05,53,14.60
2014,08,04,05,54,14.60
2014,08,04,05,55,14.60
2014,08,04,05,56,14.50
2014,08,04,05,57,14.40
2014,08,04,05,58,14.40
2014,08,04,05,59,14.40
2014,08,04,06,00,14.30
2014,08,04,06,01,14.30
2014,08,04,06,02,14.40
2014,08,04,06,03,14.40
2014,08,04,06,04,14.40
2014,08,04,06,05,14.40
2014,08,04,06,06,14.40
2014,08,04,06,07,14.40
2014,08,04,06,08,14.40
2014,08,04,06,09,14.40
2014,08,04,06,10,14.40
2014,08,04,06,11,14.40
2014,08,04,06,12,14.50
2014,08,04,06,13,14.50
2014,08,04,06,14,14.50
2014,08,04,06,15,14.50
2014,08,04,06,16,14.50
2014,08,04,06,17,14.60
2014,08,04,06,18,14.60
2014,08,04,06,19,14.70
2014,08,04,06,20,14.70
2014,08,04,06,21,14.80
2014,08,04,06,22,14.90
2014,08,04,06,23,14.90
2014,08,04,06,24,15.00
2014,08,04,06,25,15.10
2014,08,04,06,26,15.20
2014,08,04,06,27,15.30
2014,08,04,06,28,15.40
2014,08,04,06,29,15.40
2014,08,04,06,30,15.50
2014,08,04,06,31,15.60
2014,08,04,06,32,15.70
2014,08,04,06,33,15.70
2014,08,04,06,34,15.80
2014,08,04,06,35,15.80
2014,08,04,06,36,15.90
2014,08,04,06,37,16.00
2014,08,04,06,38,16.00
2014,08,04,06,39,16.10
2014,08,04,06,40,16.10
2014,08,04,06,41,16.10
2014,08,04,06,42,16.20
2014,08,04,06,43,16.20
2014,08,04,06,44,16.20
2014,08,04,06,45,16.30
2014,08,04,06,46,16.30
2014,08,04,06,47,16.30
2014,08,04,06,48,16.40
2014,08,04,06,49,16.40
2014,08,04,06,50,16.50
2014,08,04,06,51,16.50
2014,08,04,06,52,16.60
2014,08,04,06,53,16.70
2014,08,04,06,54,16.70
2014,08,04,06,55,16.80
2014,08,04,06,56,16.80
2014,08,04,06,57,16.90
2014,08,04,06,58,16.90
2014,08,04,06,59,17.00
2014,08,04,07,00,17.00
2014,08,04,07,01,17.10
2014,08,04,07,02,17.10
2014,08,04,07,03,17.10
2014,08,04,07,04,17.20
2014,08,04,07,05,17.20
2014,08,04,07,06,17.30
2014,08,04,07,07,17.30
2014,08,04,07,08,17.40
2014,08,04,07,09,17.40
2014,08,04,07,10,17.50
2014,08,04,07,11,17.50
2014,08,04,07,12,17.60
2014,08,04,07,13,17.60
2014,08,04,07,14,17.70
2014,08,04,07,15,17.70
2014,08,04,07,16,17.70
2014,08,04,07,17,17.70
2014,08,04,07,18,17.70
2014,08,04,07,19,17.70
2014,08,04,07,20,17.80
2014,08,04,07,21,17.80
2014,08,04,07,22,17.80
2014,08,04,07,23,17.90
2014,08,04,07,24,17.90
2014,08,04,07,25,17.90
2014,08,04,07,26,17.90
2014,08,04,07,27,17.90
2014,08,04,07,28,17.90
2014,08,04,07,29,17.90
2014,08,04,07,30,18.00
2014,08,04,07,31,18.00
2014,08,04,07,32,18.10
2014,08,04,07,33,18.20
2014,08,04,07,34,18.20
2014,08,04,07,35,18.20
2014,08,04,07,36,18.30
2014,08,04,07,37,18.30
2014,08,04,07,38,18.30
2014,08,04,07,39,18.40
2014,08,04,07,40,18.40
2014,08,04,07,41,18.40
2014,08,04,07,42,18.40
2014,08,04,07,43,18.40
2014,08,04,07,44,18.40
2014,08,04,07,45,18.40
2014,08,04,07,46,18.50
2014,08,04,07,47,18.50
2014,08,04,07,48,18.60
2014,08,04,07,49,18.60
2014,08,04,07,50,18.70
2014,08,04,07,51,18.70
2014,08,04,07,52,18.70
2014,08,04,07,53,18.80
2014,08,04,07,54,18.80
2014,08,04,07,55,18.80
2014,08,04,07,56,18.90
2014,08,04,07,57,19.00
2014,08,04,07,58,19.00
2014,08,04,07,59,19.10
2014,08,04,08,00,19.10
2014,08,04,08,01,19.20
2014,08,04,08,02,19.20
2014,08,04,08,03,19.30
2014,08,04,08,04,19.30
2014,08,04,08,05,19.30
2014,08,04,08,06,19.40
2014,08,04,08,07,19.40
2014,08,04,08,08,19.50
2014,08,04,08,09,19.50
2014,08,04,08,10,19.50
2014,08,04,08,11,19.50
2014,08,04,08,12,19.60
2014,08,04,08,13,19.60
2014,08,04,08,14,19.60
2014,08,04,08,15,19.60
2014,08,04,08,16,19.60
2014,08,04,08,17,19.70
2014,08,04,08,18,19.70
2014,08,04,08,19,19.70
2014,08,04,08,20,19.80
2014,08,04,08,21,19.80
2014,08,04,08,22,19.90
2014,08,04,08,23,19.90
2014,08,04,08,24,19.90
2014,08,04,08,25,19.90
2014,08,04,08,26,19.90
2014,08,04,08,27,20.00
2014,08,04,08,28,20.00
2014,08,04,08,29,20.00
2014,08,04,08,30,20.10
2014,08,04,08,31,20.10
2014,08,04,08,32,20.10
2014,08,04,08,33,20.10
2014,08,04,08,34,20.10
2014,08,04,08,35,20.00
2014,08,04,08,36,19.90
2014,08,04,08,37,19.90
2014,08,04,08,38,19.90
2014,08,04,08,39,19.80
2014,08,04,08,40,19.80
2014,08,04,08,41,19.80
2014,08,04,08,42,19.80
2014,08,04,08,43,19.90
2014,08,04,08,44,19.90
2014,08,04,08,45,20.00
2014,08,04,08,46,20.10
2014,08,04,08,47,20.10
2014,08,04,08,48,20.20
2014,08,04,08,49,20.30
2014,08,04,08,50,20.40
2014,08,04,08,51,20.50
2014,08,04,08,52,20.60
2014,08,04,08,53,20.60
2014,08,04,08,54,20.70
2014,08,04,08,55,20.80
2014,08,04,08,56,20.90
2014,08,04,08,57,21.00
2014,08,04,08,58,21.20
2014,08,04,08,59,21.30
2014,08,04,09,00,21.40
2014,08,04,09,01,21.40
2014,08,04,09,02,21.40
2014,08,04,09,03,21.40
2014,08,04,09,04,21.40
2014,08,04,09,05,21.30
2014,08,04,09,06,21.30
2014,08,04,09,07,21.40
2014,08,04,09,08,21.40
2014,08,04,09,09,21.50
2014,08,04,09,10,21.50
2014,08,04,09,11,21.60
2014,08,04,09,12,21.60
2014,08,04,09,13,21.70
2014,08,04,09,14,21.70
2014,08,04,09,15,21.80
2014,08,04,09,16,21.90
2014,08,04,09,17,22.00
2014,08,04,09,18,22.00
2014,08,04,09,19,22.10
2014,08,04,09,20,22.10
2014,08,04,09,21,22.10
2014,08,04,09,22,22.20
2014,08,04,09,23,22.20
2014,08,04,09,24,22.20
2014,08,04,09,25,22.20
2014,08,04,09,26,22.30
2014,08,04,09,27,22.30
2014,08,04,09,28,22.30
2014,08,04,09,29,22.40
2014,08,04,09,30,22.50
2014,08,04,09,31,22.50
2014,08,04,09,32,22.60
2014,08,04,09,33,22.60
2014,08,04,09,34,22.60
2014,08,04,09,35,22.70
2014,08,04,09,36,22.70
2014,08,04,09,37,22.80
2014,08,04,09,38,22.80
2014,08,04,09,39,22.80
2014,08,04,09,40,22.80
2014,08,04,09,41,22.80
2014,08,04,09,42,22.90
2014,08,04,09,43,22.90
2014,08,04,09,44,22.90
2014,08,04,09,45,23.00
2014,08,04,09,46,23.00
2014,08,04,09,47,23.10
2014,08,04,09,48,23.10
2014,08,04,09,49,23.10
2014,08,04,09,50,23.10
2014,08,04,09,51,23.20
2014,08,04,09,52,23.20
2014,08,04,09,53,23.30
2014,08,04,09,54,23.30
2014,08,04,09,55,23.40
2014,08,04,09,56,23.40
2014,08,04,09,57,23.40
2014,08,04,09,58,23.40
2014,08,04,09,59,23.40
2014,08,04,10,00,23.40
2014,08,04,10,01,23.30
2014,08,04,10,02,23.10
2014,08,04,10,03,22.90
2014,08,04,10,04,22.80
2014,08,04,10,05,22.70
2014,08,04,10,06,22.60
2014,08,04,10,07,22.50
2014,08,04,10,08,22.50
2014,08,04,10,09,22.40
2014,08,04,10,10,22.30
2014,08,04,10,11,22.30
2014,08,04,10,12,22.30
2014,08,04,10,13,22.30
2014,08,04,10,14,22.30
2014,08,04,10,15,22.30
2014,08,04,10,16,22.30
2014,08,04,10,17,22.30
2014,08,04,10,18,22.30
2014,08,04,10,19,22.20
2014,08,04,10,20,22.20
2014,08,04,10,21,22.20
2014,08,04,10,22,22.10
2014,08,04,10,23,22.10
2014,08,04,10,24,22.10
2014,08,04,10,25,22.20
2014,08,04,10,26,22.20
2014,08,04,10,27,22.30
2014,08,04,10,28,22.30
2014,08,04,10,29,22.30
2014,08,04,10,30,22.30
2014,08,04,10,31,22.40
2014,08,04,10,32,22.40
2014,08,04,10,33,22.40
2014,08,04,10,34,22.40
2014,08,04,10,35,22.40
2014,08,04,10,36,22.40
2014,08,04,10,37,22.40
2014,08,04,10,38,22.30
2014,08,04,10,39,22.30
2014,08,04,10,40,22.30
2014,08,04,10,41,22.30
2014,08,04,10,42,22.40
2014,08,04,10,43,22.40
2014,08,04,10,44,22.40
2014,08,04,10,45,22.30
2014,08,04,10,46,22.30
2014,08,04,10,47,22.40
2014,08,04,10,48,22.40
2014,08,04,10,49,22.50
2014,08,04,10,50,22.60
2014,08,04,10,51,22.60
2014,08,04,10,52,22.70
2014,08,04,10,53,22.80
2014,08,04,10,54,22.80
2014,08,04,10,55,22.90
2014,08,04,10,56,22.90
2014,08,04,10,57,23.00
2014,08,04,10,58,23.00
2014,08,04,10,59,23.10
2014,08,04,11,00,23.10
2014,08,04,11,01,23.10
2014,08,04,11,02,23.10
2014,08,04,11,03,23.10
2014,08,04,11,04,23.10
2014,08,04,11,05,23.10
2014,08,04,11,06,23.10
2014,08,04,11,07,23.20
2014,08,04,11,08,23.20
2014,08,04,11,09,23.20
2014,08,04,11,10,23.20
2014,08,04,11,11,23.20
2014,08,04,11,12,23.30
2014,08,04,11,13,23.30
2014,08,04,11,14,23.30
2014,08,04,11,15,23.30
2014,08,04,11,16,23.30
2014,08,04,11,17,23.30
2014,08,04,11,18,23.30
2014,08,04,11,19,23.30
2014,08,04,11,20,23.30
2014,08,04,11,21,23.30
2014,08,04,11,22,23.30
2014,08,04,11,23,23.40
2014,08,04,11,24,23.40
2014,08,04,11,25,23.40
2014,08,04,11,26,23.30
2014,08,04,11,27,23.30
2014,08,04,11,28,23.30
2014,08,04,11,29,23.30
2014,08,04,11,30,23.20
2014,08,04,11,31,23.20
2014,08,04,11,32,23.30
2014,08,04,11,33,23.30
2014,08,04,11,34,23.30
2014,08,04,11,35,23.40
2014,08,04,11,36,23.30
2014,08,04,11,37,23.30
2014,08,04,11,38,23.30
2014,08,04,11,39,23.30
2014,08,04,11,40,23.40
2014,08,04,11,41,23.40
2014,08,04,11,42,23.30
2014,08,04,11,43,23.30
2014,08,04,11,44,23.30
2014,08,04,11,45,23.40
2014,08,04,11,46,23.40
2014,08,04,11,47,23.40
2014,08,04,11,48,23.40
2014,08,04,11,49,23.30
2014,08,04,11,50,23.30
2014,08,04,11,51,23.30
2014,08,04,11,52,23.30
2014,08,04,11,53,23.30
2014,08,04,11,54,23.40
2014,08,04,11,55,23.40
2014,08,04,11,56,23.30
2014,08,04,11,57,23.40
2014,08,04,11,58,23.40
2014,08,04,11,59,23.40
2014,08,04,12,00,23.40
2014,08,04,12,01,23.50
2014,08,04,12,02,23.60
2014,08,04,12,03,23.60
2014,08,04,12,04,23.70
2014,08,04,12,05,23.80
2014,08,04,12,06,23.80
2014,08,04,12,07,23.90
2014,08,04,12,08,23.80
2014,08,04,12,09,23.80
2014,08,04,12,10,23.70
2014,08,04,12,11,23.70
2014,08,04,12,12,23.80
2014,08,04,12,13,23.80
2014,08,04,12,14,23.80
2014,08,04,12,15,23.90
2014,08,04,12,16,23.90
2014,08,04,12,17,23.90
2014,08,04,12,18,23.90
2014,08,04,12,19,23.90
2014,08,04,12,20,24.00
2014,08,04,12,21,24.00
2014,08,04,12,22,23.90
2014,08,04,12,23,23.90
2014,08,04,12,24,23.90
2014,08,04,12,25,24.00
2014,08,04,12,26,24.10
2014,08,04,12,27,24.10
2014,08,04,12,28,24.10
2014,08,04,12,29,24.00
2014,08,04,12,30,23.90
2014,08,04,12,31,23.90
2014,08,04,12,32,23.90
2014,08,04,12,33,23.90
2014,08,04,12,34,23.90
2014,08,04,12,35,23.90
2014,08,04,12,36,24.00
2014,08,04,12,37,24.10
2014,08,04,12,38,24.10
2014,08,04,12,39,24.20
2014,08,04,12,40,24.30
2014,08,04,12,41,24.40
2014,08,04,12,42,24.40
2014,08,04,12,43,24.40
2014,08,04,12,44,24.50
2014,08,04,12,45,24.60
2014,08,04,12,46,24.60
2014,08,04,12,47,24.70
2014,08,04,12,48,24.60
2014,08,04,12,49,24.60
2014,08,04,12,50,24.60
2014,08,04,12,51,24.60
2014,08,04,12,52,24.50
2014,08,04,12,53,24.60
2014,08,04,12,54,24.60
2014,08,04,12,55,24.60
2014,08,04,12,56,24.60
2014,08,04,12,57,24.60
2014,08,04,12,58,24.60
2014,08,04,12,59,24.60
2014,08,04,13,00,24.60
2014,08,04,13,01,24.70
2014,08,04,13,02,24.70
2014,08,04,13,03,24.70
2014,08,04,13,04,24.70
2014,08,04,13,05,24.70
2014,08,04,13,06,24.70
2014,08,04,13,07,24.70
2014,08,04,13,08,24.70
2014,08,04,13,09,24.70
2014,08,04,13,10,24.70
2014,08,04,13,11,24.70
2014,08,04,13,12,24.70
2014,08,04,13,13,24.80
2014,08,04,13,14,24.80
2014,08,04,13,15,24.80
2014,08,04,13,16,24.80
2014,08,04,13,17,24.80
2014,08,04,13,18,24.90
2014,08,04,13,19,24.90
2014,08,04,13,20,24.90
2014,08,04,13,21,25.00
2014,08,04,13,22,25.10
2014,08,04,13,23,25.10
2014,08,04,13,24,25.10
2014,08,04,13,25,25.10
2014,08,04,13,26,25.10
2014,08,04,13,27,25.20
2014,08,04,13,28,25.30
2014,08,04,13,29,25.30
2014,08,04,13,30,25.40
2014,08,04,13,31,25.40
2014,08,04,13,32,25.40
2014,08,04,13,33,25.30
2014,08,04,13,34,25.30
2014,08,04,13,35,25.30
2014,08,04,13,36,25.30
2014,08,04,13,37,25.40
2014,08,04,13,38,25.40
2014,08,04,13,39,25.40
2014,08,04,13,40,25.40
2014,08,04,13,41,25.40
2014,08,04,13,42,25.50
2014,08,04,13,43,25.50
2014,08,04,13,44,25.50
2014,08,04,13,45,25.60
2014,08,04,13,46,25.70
2014,08,04,13,47,25.70
2014,08,04,13,48,25.80
2014,08,04,13,49,25.90
2014,08,04,13,50,25.90
2014,08,04,13,51,25.90
2014,08,04,13,52,25.90
2014,08,04,13,53,25.90
2014,08,04,13,54,25.90
2014,08,04,13,55,25.80
2014,08,04,13,56,25.70
2014,08,04,13,57,25.70
2014,08,04,13,58,25.60
2014,08,04,13,59,25.70
2014,08,04,14,00,25.70
2014,08,04,14,01,25.70
2014,08,04,14,02,25.80
2014,08,04,14,03,25.90
2014,08,04,14,04,26.00
2014,08,04,14,05,26.10
2014,08,04,14,06,26.20
2014,08,04,14,07,26.20
2014,08,04,14,08,26.20
2014,08,04,14,09,26.20
2014,08,04,14,10,26.20
2014,08,04,14,11,26.20
2014,08,04,14,12,26.30
2014,08,04,14,13,26.30
2014,08,04,14,14,26.30
2014,08,04,14,15,26.30
2014,08,04,14,16,26.40
2014,08,04,14,17,26.40
2014,08,04,14,18,26.50
2014,08,04,14,19,26.60
2014,08,04,14,20,26.70
2014,08,04,14,21,26.70
2014,08,04,14,22,26.80
2014,08,04,14,23,26.80
2014,08,04,14,24,26.80
2014,08,04,14,25,26.90
2014,08,04,14,26,27.00
2014,08,04,14,27,27.00
2014,08,04,14,28,27.10
2014,08,04,14,29,27.10
2014,08,04,14,30,27.10
2014,08,04,14,31,27.10
2014,08,04,14,32,27.00
2014,08,04,14,33,27.00
2014,08,04,14,34,26.90
2014,08,04,14,35,26.90
2014,08,04,14,36,26.80
2014,08,04,14,37,26.90
2014,08,04,14,38,26.90
2014,08,04,14,39,26.90
2014,08,04,14,40,26.90
2014,08,04,14,41,26.80
2014,08,04,14,42,26.80
2014,08,04,14,43,26.80
2014,08,04,14,44,26.80
2014,08,04,14,45,26.80
2014,08,04,14,46,26.90
2014,08,04,14,47,27.00
2014,08,04,14,48,27.00
2014,08,04,14,49,27.10
2014,08,04,14,50,27.10
2014,08,04,14,51,27.10
2014,08,04,14,52,27.10
2014,08,04,14,53,27.10
2014,08,04,14,54,27.10
2014,08,04,14,55,27.10
2014,08,04,14,56,27.20
2014,08,04,14,57,27.20
2014,08,04,14,58,27.20
2014,08,04,14,59,27.10
2014,08,04,15,00,27.10
2014,08,04,15,01,27.10
2014,08,04,15,02,27.10
2014,08,04,15,03,27.10
2014,08,04,15,04,27.10
2014,08,04,15,05,27.10
2014,08,04,15,06,27.20
2014,08,04,15,07,27.20
2014,08,04,15,08,27.20
2014,08,04,15,09,27.10
2014,08,04,15,10,27.00
2014,08,04,15,11,27.00
2014,08,04,15,12,27.10
2014,08,04,15,13,27.10
2014,08,04,15,14,27.10
2014,08,04,15,15,27.10
2014,08,04,15,16,27.20
2014,08,04,15,17,27.20
2014,08,04,15,18,27.20
2014,08,04,15,19,27.30
2014,08,04,15,20,27.30
2014,08,04,15,21,27.40
2014,08,04,15,22,27.40
2014,08,04,15,23,27.30
2014,08,04,15,24,27.30
2014,08,04,15,25,27.30
2014,08,04,15,26,27.20
2014,08,04,15,27,27.20
2014,08,04,15,28,27.30
2014,08,04,15,29,27.20
2014,08,04,15,30,27.20
2014,08,04,15,31,27.30
2014,08,04,15,32,27.30
2014,08,04,15,33,27.30
2014,08,04,15,34,27.40
2014,08,04,15,35,27.30
2014,08,04,15,36,27.30
2014,08,04,15,37,27.30
2014,08,04,15,38,27.30
2014,08,04,15,39,27.20
2014,08,04,15,40,27.20
2014,08,04,15,41,27.20
2014,08,04,15,42,27.20
2014,08,04,15,43,27.10
2014,08,04,15,44,27.20
2014,08,04,15,45,27.20
2014,08,04,15,46,27.20
2014,08,04,15,47,27.20
2014,08,04,15,48,27.20
2014,08,04,15,49,27.30
2014,08,04,15,50,27.30
2014,08,04,15,51,27.30
2014,08,04,15,52,27.40
2014,08,04,15,53,27.40
2014,08,04,15,54,27.40
2014,08,04,15,55,27.50
2014,08,04,15,56,27.50
2014,08,04,15,57,27.60
2014,08,04,15,58,27.70
2014,08,04,15,59,27.70
2014,08,04,16,00,27.70
2014,08,04,16,01,27.70
2014,08,04,16,02,27.70
2014,08,04,16,03,27.60
2014,08,04,16,04,27.60
2014,08,04,16,05,27.60
2014,08,04,16,06,27.60
2014,08,04,16,07,27.60
2014,08,04,16,08,27.70
2014,08,04,16,09,27.80
2014,08,04,16,10,27.80
2014,08,04,16,11,27.80
2014,08,04,16,12,27.90
2014,08,04,16,13,27.90
2014,08,04,16,14,27.90
2014,08,04,16,15,28.00
2014,08,04,16,16,28.00
2014,08,04,16,17,28.00
2014,08,04,16,18,28.10
2014,08,04,16,19,28.00
2014,08,04,16,20,28.00
2014,08,04,16,21,28.00
2014,08,04,16,22,28.00
2014,08,04,16,23,28.00
2014,08,04,16,24,28.10
2014,08,04,16,25,28.10
2014,08,04,16,26,28.10
2014,08,04,16,27,28.20
2014,08,04,16,28,28.30
2014,08,04,16,29,28.30
2014,08,04,16,30,28.30
2014,08,04,16,31,28.40
2014,08,04,16,32,28.40
2014,08,04,16,33,28.30
2014,08,04,16,34,28.30
2014,08,04,16,35,28.30
2014,08,04,16,36,28.20
2014,08,04,16,37,28.20
2014,08,04,16,38,28.20
2014,08,04,16,39,28.20
2014,08,04,16,40,28.20
2014,08,04,16,41,28.20
2014,08,04,16,42,28.20
2014,08,04,16,43,28.30
2014,08,04,16,44,28.30
2014,08,04,16,45,28.40
2014,08,04,16,46,28.40
2014,08,04,16,47,28.40
2014,08,04,16,48,28.50
2014,08,04,16,49,28.50
2014,08,04,16,50,28.50
2014,08,04,16,51,28.50
2014,08,04,16,52,28.50
2014,08,04,16,53,28.40
2014,08,04,16,54,28.40
2014,08,04,16,55,28.40
2014,08,04,16,56,28.50
2014,08,04,16,57,28.50
2014,08,04,16,58,28.60
2014,08,04,16,59,28.70
2014,08,04,17,00,28.70
2014,08,04,17,01,28.70
2014,08,04,17,02,28.70
2014,08,04,17,03,28.70
2014,08,04,17,04,28.70
2014,08,04,17,05,28.70
2014,08,04,17,06,28.70
2014,08,04,17,07,28.60
2014,08,04,17,08,28.60
2014,08,04,17,09,28.60
2014,08,04,17,10,28.60
2014,08,04,17,11,28.60
2014,08,04,17,12,28.60
2014,08,04,17,13,28.60
2014,08,04,17,14,28.60
2014,08,04,17,15,28.60
2014,08,04,17,16,28.60
2014,08,04,17,17,28.60
2014,08,04,17,18,28.60
2014,08,04,17,19,28.60